Zurück zum Katalog

CZ-6A DEB

AktivPO
NORAD 61408·DEBRIS·🇨🇳 China

Gestartet Aug 6, 2024 von Taiyuan Satellite Launch Center

Loading…

Nächste Überflüge (nächste 24 Stunden)

TLE

AktuellSource: Space-Track

Epoche: Sep 14, 2026, 11:04 UTC

1 61408U 24140XZ  26257.46122590  .00002865  00000-0  10029-2 0  9996
2 61408  89.0148 264.6940 0018097 174.6991 185.4403 14.34835118105025

Verfolge CZ-6A DEB in Echtzeit mit AllMySat

Download on the App Store